Date String (YYYY-MM-DD hh:mm:ss) UTC,Instrument flags,Ambient pressure (hPa),Sample flow (lpm),Bypass flow (lpm),Sample temperature (°C),Ambient temperature (°C),ASC tube jacket temperature (°C),LED temperature (°C),Box temperature (°C),Sample RH (%),Span deviation,Mass concentration (μg/m³),Mass concentration (μg/m³),Mass concentration (μg/m³)
DateTimeUTC,F1_M11,P_M11,Q1_M11,Q2_M11,T1_M11,T2_M11,T3_M11,T4_M11,T5_M11,U1_M11,ZSPAN_M11,X0_M11,X2_M11,X1_M11
2022-02-16 04:00:00,,0815.0,5.01,0.00,27.6,26.7,00.0,36.9,29.2,04.6,0000.0,0006.25,0002.90,0001.91
2022-02-16 04:01:00,,0815.0,4.98,0.00,27.6,26.7,00.0,36.9,29.2,04.5,0000.0,0006.74,0002.85,0001.91
2022-02-16 04:02:00,,0815.0,5.02,0.00,27.6,26.7,00.0,36.9,29.2,04.2,0000.0,0006.89,0002.89,0001.90
2022-02-16 04:03:00,,0815.0,4.99,0.00,27.6,26.7,00.0,36.8,29.2,04.3,0000.0,0007.01,0002.92,0001.90
2022-02-16 04:04:00,,0815.0,5.01,0.00,27.5,26.6,00.0,36.8,29.2,04.1,0000.0,0007.35,0002.91,0001.88
2022-02-16 04:05:00,,0815.0,5.00,0.00,27.5,26.6,00.0,36.8,29.1,04.2,0000.0,0007.86,0002.84,0001.86
2022-02-16 04:06:00,,0815.0,4.99,0.00,27.5,26.5,00.0,36.7,29.1,04.1,0000.0,0007.94,0002.81,0001.84
2022-02-16 04:07:00,,0814.9,5.01,0.00,27.4,26.5,00.0,36.7,29.1,04.1,0000.0,0007.39,0002.78,0001.84
2022-02-16 04:08:00,,0814.9,4.99,0.00,27.4,26.6,00.0,36.7,29.1,04.2,0000.0,0007.27,0002.69,0001.83
2022-02-16 04:09:00,,0814.9,5.00,0.00,27.5,26.7,00.0,36.7,29.2,04.3,0000.0,0007.16,0002.62,0001.82
2022-02-16 04:10:00,,0814.9,5.02,0.00,27.5,26.7,00.0,36.7,29.2,04.2,0000.0,0007.02,0002.66,0001.82
2022-02-16 04:11:00,,0814.9,4.98,0.00,27.5,26.6,00.0,36.7,29.2,04.4,0000.0,0006.84,0002.60,0001.84
2022-02-16 04:12:00,,0814.9,5.02,0.00,27.5,26.6,00.0,36.6,29.1,04.2,0000.0,0006.78,0002.57,0001.82
2022-02-16 04:13:00,,0814.9,4.99,0.00,27.4,26.6,00.0,36.6,29.1,04.2,0000.0,0006.69,0002.53,0001.81
2022-02-16 04:14:00,,0814.9,5.00,0.00,27.4,26.5,00.0,36.6,29.1,04.2,0000.0,0006.76,0002.55,0001.81
2022-02-16 04:15:00,,0815.0,4.99,0.00,27.4,26.5,00.0,36.6,29.0,04.2,0000.0,0006.54,0002.58,0001.82
2022-02-16 04:16:00,,0814.9,5.01,0.00,27.3,26.5,00.0,36.6,29.0,04.2,0000.0,0005.68,0002.67,0001.84
2022-02-16 04:17:00,,0814.9,4.99,0.00,27.3,26.4,00.0,36.5,28.9,04.2,0000.0,0005.54,0002.73,0001.86
2022-02-16 04:18:00,,0814.9,5.02,0.00,27.3,26.4,00.0,36.5,28.9,04.3,0000.0,0005.50,0002.77,0001.86
2022-02-16 04:19:00,,0815.0,4.99,0.00,27.3,26.4,00.0,36.5,28.9,04.4,0000.0,0005.71,0002.85,0001.87
2022-02-16 04:20:00,,0815.0,5.01,0.00,27.3,26.4,00.0,36.5,28.9,04.5,0000.0,0005.76,0002.90,0001.91
2022-02-16 04:21:00,,0815.0,4.99,0.00,27.3,26.5,00.0,36.5,29.0,04.9,0000.0,0005.66,0002.88,0001.92
2022-02-16 04:22:00,,0815.0,5.00,0.00,27.3,26.5,00.0,36.4,29.0,04.5,0000.0,0006.16,0002.90,0001.92
2022-02-16 04:23:00,,0815.0,5.01,0.00,27.3,26.4,00.0,36.4,29.0,04.4,0000.0,0006.25,0002.91,0001.94
2022-02-16 04:24:00,,0815.0,5.01,0.00,27.2,26.4,00.0,36.4,28.9,04.3,0000.0,0006.22,0002.97,0001.96
2022-02-16 04:25:00,,0815.0,5.00,0.00,27.2,26.4,00.0,36.4,28.8,04.3,0000.0,0006.36,0003.00,0001.96
2022-02-16 04:26:00,,0815.0,4.99,0.00,27.2,26.3,00.0,36.4,28.8,04.4,0000.0,0006.78,0002.93,0001.94
2022-02-16 04:27:00,,0815.0,5.02,0.00,27.2,26.3,00.0,36.4,28.8,04.6,0000.0,0006.95,0002.90,0001.92
2022-02-16 04:28:00,,0815.0,5.00,0.00,27.2,26.4,00.0,36.3,28.9,04.6,0000.0,0007.17,0002.87,0001.91
2022-02-16 04:29:00,,0815.0,5.00,0.00,27.2,26.4,00.0,36.3,28.9,04.6,0000.0,0007.49,0002.82,0001.89
2022-02-16 04:30:00,,0815.0,5.01,0.00,27.2,26.4,00.0,36.3,28.9,04.6,0000.0,0007.55,0002.72,0001.88
2022-02-16 04:31:00,,0815.0,4.99,0.00,27.2,26.5,00.0,36.3,29.0,04.7,0000.0,0008.03,0002.66,0001.86
2022-02-16 04:32:00,,0815.0,5.00,0.00,27.3,26.5,00.0,36.3,29.0,04.8,0000.0,0008.20,0002.60,0001.83
2022-02-16 04:33:00,,0815.0,5.00,0.00,27.3,26.6,00.0,36.3,29.0,04.7,0000.0,0008.29,0002.62,0001.82
2022-02-16 04:34:00,,0814.9,4.99,0.00,27.3,26.6,00.0,36.3,29.0,04.6,0000.0,0007.75,0002.59,0001.80
2022-02-16 04:35:00,,0814.9,5.00,0.00,27.3,26.6,00.0,36.3,29.0,04.6,0000.0,0008.20,0002.55,0001.79
2022-02-16 04:36:00,,0815.1,5.02,0.00,27.3,26.6,00.0,36.3,29.0,04.6,0000.0,0008.53,0002.58,0001.80
2022-02-16 04:37:00,,0814.9,5.00,0.00,27.3,26.6,00.0,36.3,29.1,04.7,0000.0,0008.28,0002.63,0001.82
2022-02-16 04:38:00,,0815.0,5.00,0.00,27.3,26.6,00.0,36.3,29.0,04.7,0000.0,0008.94,0002.69,0001.84
2022-02-16 04:39:00,,0814.9,5.01,0.00,27.3,26.6,00.0,36.3,29.0,04.7,0000.0,0008.95,0002.67,0001.84
2022-02-16 04:40:00,,0814.9,4.99,0.00,27.3,26.6,00.0,36.3,29.1,04.6,0000.0,0008.67,0002.67,0001.84
2022-02-16 04:41:00,,0814.9,5.00,0.00,27.3,26.6,00.0,36.3,29.1,04.4,0000.0,0008.60,0002.76,0001.86
2022-02-16 04:42:00,,0814.9,5.01,0.00,27.3,26.6,00.0,36.3,29.1,04.6,0000.0,0008.09,0002.77,0001.86
2022-02-16 04:43:00,,0815.0,4.99,0.00,27.3,26.6,00.0,36.3,29.1,04.6,0000.0,0008.31,0002.82,0001.87
2022-02-16 04:44:00,,0814.9,5.00,0.00,27.3,26.6,00.0,36.3,29.1,04.5,0000.0,0008.67,0002.84,0001.88
2022-02-16 04:45:00,,0814.9,5.00,0.00,27.3,26.6,00.0,36.3,29.1,04.5,0000.0,0008.82,0002.91,0001.91
2022-02-16 04:46:00,,0814.9,4.99,0.00,27.3,26.6,00.0,36.3,29.0,04.6,0000.0,0009.04,0002.92,0001.93
2022-02-16 04:47:00,,0814.9,5.01,0.00,27.3,26.6,00.0,36.3,29.1,04.6,0000.0,0008.73,0002.86,0001.93
2022-02-16 04:48:00,,0815.0,5.00,0.00,27.3,26.6,00.0,36.3,29.1,04.6,0000.0,0009.29,0002.81,0001.92
2022-02-16 04:49:00,,0815.0,4.99,0.00,27.3,26.6,00.0,36.3,29.1,04.6,0000.0,0008.72,0002.80,0001.93
2022-02-16 04:50:00,,0815.1,4.99,0.00,27.3,26.6,00.0,36.4,29.1,04.6,0000.0,0008.46,0002.83,0001.96
2022-02-16 04:51:00,,0814.9,5.00,0.00,27.3,26.6,00.0,36.4,29.1,04.6,0000.0,0008.51,0002.87,0001.97
2022-02-16 04:52:00,,0814.9,5.00,0.00,27.3,26.6,00.0,36.4,29.1,04.5,0000.0,0008.81,0002.82,0001.97
2022-02-16 04:53:00,,0815.0,5.02,0.00,27.3,26.6,00.0,36.4,29.1,04.5,0000.0,0009.36,0002.84,0001.98
2022-02-16 04:54:00,,0815.0,4.99,0.00,27.3,26.6,00.0,36.3,29.0,04.6,0000.0,0009.14,0002.81,0001.98
2022-02-16 04:55:00,,0814.9,4.99,0.00,27.3,26.5,00.0,36.3,29.0,04.6,0000.0,0008.60,0002.74,0001.98
2022-02-16 04:56:00,,0814.9,5.01,0.00,27.2,26.4,00.0,36.3,28.9,04.6,0000.0,0008.74,0002.66,0001.96
2022-02-16 04:57:00,,0814.9,4.98,0.00,27.2,26.3,00.0,36.3,28.9,04.7,0000.0,0008.59,0002.68,0001.97
2022-02-16 04:58:00,,0814.9,4.99,0.00,27.2,26.3,00.0,36.3,28.8,04.8,0000.0,0008.57,0002.72,0001.97
2022-02-16 04:59:00,,0814.9,5.02,0.00,27.2,26.3,00.0,36.3,28.8,04.7,0000.0,0008.04,0002.72,0001.98
